| time (UTC) | temp C | wind direction | speed KPH | gust KPH | rain 1hr cm | rain 24hr cm | rain mn cm | humidity % | barometer mb |
| 20260504001512 | 12 | 236 | 3.2 | 9.7 | 0.00 | 0.00 | 0.00 | 50 | 1010.6 |
| 20260504000012 | 13 | 286 | 3.2 | 14.5 | 0.00 | 0.00 | 0.00 | 49 | 1010.7 |
| 20260503234521 | 13 | 284 | 9.7 | 24.1 | 0.00 | 0.00 | 0.00 | 48 | 1010.7 |
| 20260503233009 | 14 | 231 | 11.3 | 22.5 | 0.00 | 0.00 | 0.00 | 47 | 1010.8 |
| 20260503231509 | 14 | 244 | 6.4 | 19.3 | 0.00 | 0.00 | 0.00 | 47 | 1010.9 |
| 20260503230011 | 13 | 242 | 8.0 | 29.0 | 0.00 | 0.00 | 0.00 | 48 | 1011.0 |
| 20260503224510 | 13 | 240 | 8.0 | 25.7 | 0.00 | 0.00 | 0.00 | 48 | 1011.1 |
| 20260503223007 | 13 | 256 | 4.8 | 24.1 | 0.00 | 0.00 | 0.00 | 49 | 1011.2 |
| 20260503221505 | 13 | 259 | 6.4 | 22.5 | 0.00 | 0.00 | 0.00 | 48 | 1011.2 |
| 20260503220020 | 14 | 270 | 11.3 | 22.5 | 0.00 | 0.00 | 0.00 | 47 | 1011.2 |
| 20260503214502 | 14 | 201 | 9.7 | 24.1 | 0.00 | 0.00 | 0.00 | 48 | 1011.3 |
| 20260503213004 | 14 | 215 | 16.1 | 29.0 | 0.00 | 0.00 | 0.00 | 47 | 1011.3 |
| 20260503211501 | 13 | 207 | 9.7 | 29.0 | 0.00 | 0.00 | 0.00 | 48 | 1011.4 |
| 20260503210001 | 14 | 236 | 12.9 | 24.1 | 0.00 | 0.00 | 0.00 | 46 | 1011.4 |
| 20260503204559 | 14 | 232 | 3.2 | 35.4 | 0.00 | 0.00 | 0.00 | 47 | 1011.4 |
| 20260503203104 | 14 | 298 | 9.7 | 22.5 | 0.00 | 0.00 | 0.00 | 48 | 1011.4 |
| 20260503201558 | 15 | 261 | 9.7 | 25.7 | 0.00 | 0.00 | 0.00 | 46 | 1011.7 |
| 20260503200058 | 15 | 273 | 14.5 | 30.6 | 0.00 | 0.00 | 0.00 | 46 | 1011.8 |
| 20260503194553 | 14 | 244 | 8.0 | 20.9 | 0.00 | 0.00 | 0.00 | 48 | 1012.2 |
| 20260503193054 | 14 | 296 | 9.7 | 25.7 | 0.00 | 0.00 | 0.00 | 48 | 1012.5 |
| 20260503191550 | 15 | 269 | 11.3 | 29.0 | 0.00 | 0.00 | 0.00 | 47 | 1012.8 |
| 20260503190055 | 13 | 275 | 4.8 | 27.4 | 0.00 | 0.00 | 0.00 | 53 | 1012.9 |
| 20260503184555 | 14 | 234 | 12.9 | 25.7 | 0.00 | 0.00 | 0.00 | 47 | 1013.2 |
| 20260503183054 | 13 | 216 | 9.7 | 24.1 | 0.00 | 0.00 | 0.00 | 46 | 1013.4 |
| 20260503181541 | 13 | 281 | 6.4 | 22.5 | 0.00 | 0.00 | 0.00 | 50 | 1013.5 |
| 20260503180040 | 13 | 265 | 12.9 | 24.1 | 0.00 | 0.00 | 0.00 | 48 | 1013.6 |
| 20260503174536 | 13 | 221 | 11.3 | 29.0 | 0.00 | 0.00 | 0.00 | 52 | 1013.7 |
| 20260503173034 | 13 | 259 | 9.7 | 24.1 | 0.00 | 0.00 | 0.00 | 53 | 1013.9 |
| 20260503171532 | 12 | 298 | 9.7 | 29.0 | 0.00 | 0.00 | 0.00 | 53 | 1014.2 |
| 20260503081512 | 1 | 286 | 0.0 | 0.0 | 0.00 | 0.13 | 0.00 | 91 | 1015.4 |
| 20260503071508 | 2 | 288 | 0.0 | 0.0 | 0.00 | 0.18 | 0.00 | 91 | 1015.3 |
| 20260503060104 | 2 | 291 | 0.0 | 0.0 | 0.00 | 0.18 | 0.00 | 92 | 1015.6 |
| 20260503054604 | 2 | 291 | 0.0 | 0.0 | 0.00 | 0.25 | 0.00 | 91 | 1015.6 |
| 20260503053057 | 2 | 291 | 0.0 | 0.0 | 0.00 | 0.25 | 0.00 | 91 | 1015.6 |
| 20260503051557 | 2 | 291 | 0.0 | 0.0 | 0.00 | 0.25 | 0.00 | 90 | 1015.6 |
| 20260503050054 | 2 | 291 | 0.0 | 0.0 | 0.00 | 0.25 | 0.00 | 89 | 1015.7 |
| 20260503044553 | 3 | 291 | 0.0 | 0.0 | 0.00 | 0.43 | 0.00 | 87 | 1015.8 |
| 20260503043048 | 3 | 291 | 0.0 | 0.0 | 0.00 | 0.43 | 0.00 | 86 | 1015.7 |
| 20260503041548 | 3 | 291 | 0.0 | 0.0 | 0.00 | 0.43 | 0.00 | 84 | 1015.9 |
| 20260503040048 | 3 | 292 | 0.0 | 4.8 | 0.00 | 0.43 | 0.00 | 84 | 1015.9 |
| 20260503034549 | 3 | 360 | 0.0 | 0.0 | 0.00 | 0.46 | 0.43 | 85 | 1015.9 |
| 20260503033059 | 3 | 360 | 0.0 | 0.0 | 0.00 | 0.46 | 0.43 | 85 | 1016.0 |
| 20260503031553 | 3 | 360 | 0.0 | 0.0 | 0.00 | 0.46 | 0.43 | 84 | 1016.1 |
| 20260503030042 | 3 | 360 | 0.0 | 0.0 | 0.00 | 0.46 | 0.43 | 84 | 1016.1 |
| 20260503024552 | 3 | 360 | 0.0 | 0.0 | 0.00 | 0.46 | 0.43 | 83 | 1016.2 |
| 20260503023042 | 3 | 360 | 0.0 | 0.0 | 0.00 | 0.46 | 0.43 | 84 | 1016.4 |
| 20260503021541 | 3 | 360 | 0.0 | 0.0 | 0.00 | 0.46 | 0.43 | 84 | 1016.3 |
| 20260503020046 | 3 | 360 | 0.0 | 0.0 | 0.00 | 0.46 | 0.43 | 85 | 1016.3 |
| 20260503014543 | 3 | 360 | 0.0 | 0.0 | 0.00 | 0.46 | 0.43 | 84 | 1016.3 |
| 20260503013040 | 3 | 360 | 0.0 | 0.0 | 0.00 | 0.46 | 0.43 | 84 | 1016.2 |
| 20260503011543 | 3 | 360 | 0.0 | 0.0 | 0.00 | 0.46 | 0.43 | 84 | 1016.2 |
| 20260503010039 | 4 | 360 | 0.0 | 0.0 | 0.00 | 0.46 | 0.43 | 81 | 1016.2 |
| 20260503004543 | 4 | 360 | 0.0 | 0.0 | 0.00 | 0.46 | 0.43 | 77 | 1016.0 |
| 20260503003038 | 5 | 360 | 0.0 | 0.0 | 0.00 | 0.46 | 0.43 | 75 | 1016.0 |